SCP
0 0 0 0 0 0 0 0 0 0 0 0 0 0 0 0 0 0 0 0 1 1 1 1 1 1 1 1 1 1 1 0 0 0 0 0 0 0 0 0 0 0 0 0 0 0 0 0 0
0 0 0 0 0 0 0 0 0 0 0 0 0 0 0 0 0 0 0 0 1 1 1 1 1 1 1 1 1 1 1 0 0 0 0 0 0 0 0 0 0 0 0 0 0 0 0 0 0
0 0 0 0 0 0 0 0 0 0 0 0 0 0 0 0 0 0 0 1 1 1 1 1 1 1 1 1 1 1 1 1 0 0 0 0 0 0 0 0 0 0 0 0 0 0 0 0 0
0 0 0 0 0 0 0 0 0 0 0 0 0 0 0 0 0 0 0 1 1 1 1 1 1 1 1 1 1 1 1 1 1 1 0 0 0 0 0 0 0 0 0 0 0 0 0 0 0
0 0 0 0 0 0 0 0 0 0 0 0 0 0 0 0 0 0 0 0 1 1 1 2 2 1 1 1 1 1 1 1 1 1 1 1 1 1 0 0 0 0 0 0 0 0 0 0 0
0 0 0 0 0 0 0 0 0 0 0 0 0 0 0 1 0 0 0 0 1 1 1 2 2 1 1 1 1 1 1 1 1 1 1 1 1 1 0 0 0 0 0 0 0 0 0 0 0
0 0 0 0 0 0 0 0 0 0 0 0 0 0 1 1 1 0 0 1 1 1 2 2 1 1 1 1 1 1 1 1 1 1 1 1 1 1 1 0 0 0 0 0 0 0 0 0 0
0 0 0 0 0 0 0 0 0 0 0 0 0 0 1 1 1 1 1 1 1 1 1 2 1 1 1 1 1 1 1 1 1 1 1 1 1 1 0 0 0 0 0 0 0 0 0 0 0
0 0 0 0 0 0 0 0 0 0 0 0 0 0 1 1 1 1 1 1 1 1 1 1 1 1 1 1 1 1 1 1 1 1 1 1 1 1 0 0 0 0 0 0 0 0 0 0 0
0 0 0 0 0 0 0 0 0 0 0 0 0 0 1 1 1 1 1 1 1 1 1 1 1 1 1 1 1 1 1 1 1 1 1 1 1 1 1 0 0 0 0 0 0 0 0 0 0
0 0 0 0 0 0 0 0 0 0 0 0 0 0 0 1 1 1 1 1 1 1 1 1 1 1 1 1 1 1 1 1 1 1 1 1 1 1 1 1 1 1 0 0 0 0 0 0 0
0 0 0 0 0 0 0 0 0 0 0 0 0 0 0 1 1 1 1 1 1 1 1 1 1 2 2 2 1 1 1 1 1 1 1 1 1 1 1 1 1 1 0 0 0 0 0 0 0
0 0 0 0 0 0 0 0 0 0 0 0 0 0 0 1 1 1 1 1 1 1 1 1 2 2 2 2 1 1 1 1 1 1 1 1 1 1 1 1 1 1 0 0 0 0 0 0 0
0 0 0 0 0 0 0 0 0 0 0 0 0 0 0 1 1 1 1 1 1 1 1 1 2 2 2 2 1 1 1 1 1 1 1 1 1 1 1 1 1 1 1 1 1 0 0 0 0
0 0 0 0 0 0 0 0 0 0 0 0 0 0 0 1 1 1 1 1 1 1 1 1 2 2 2 2 1 1 1 1 1 1 1 1 1 1 1 1 1 1 1 1 1 1 1 0 0
0 0 0 0 0 0 0 0 0 0 0 0 0 0 1 1 1 1 1 1 1 1 1 1 2 2 2 2 2 1 1 1 1 1 1 1 1 1 1 1 1 1 1 1 1 1 1 1 0
0 0 0 0 0 0 0 0 0 0 0 0 0 0 1 1 1 1 1 1 2 2 2 2 2 2 2 2 2 2 1 1 1 1 1 1 1 1 1 1 1 1 1 1 1 1 1 1 0
0 0 0 0 0 0 0 0 0 0 0 0 0 0 1 1 1 1 1 1 2 2 2 2 2 2 2 2 2 2 1 1 1 1 1 1 1 1 1 1 1 1 1 1 1 1 1 1 0
0 0 0 0 0 0 0 0 0 0 0 0 0 1 1 0 1 1 1 1 2 2 2 2 2 2 2 2 2 2 1 1 1 1 1 1 1 1 1 1 1 1 1 1 1 1 1 1 0
0 0 0 0 0 0 0 0 0 0 0 0 0 1 1 1 1 1 1 1 2 2 2 2 2 2 2 2 2 2 1 1 1 1 1 1 1 1 1 1 1 1 1 1 1 1 1 1 1
0 0 0 0 0 0 0 0 0 0 0 0 0 1 0 1 1 1 1 1 1 2 2 2 2 2 2 2 1 1 1 1 1 1 1 1 1 1 1 1 1 1 1 1 1 1 1 1 1
0 0 0 0 0 0 0 0 0 0 0 0 0 0 0 0 1 1 1 1 1 1 1 1 1 1 1 1 1 1 1 1 1 1 1 1 1 1 1 1 1 1 1 1 1 1 1 1 1
0 0 0 0 0 0 0 0 0 0 0 0 0 0 0 1 1 1 1 1 1 1 1 1 1 1 1 1 1 1 1 1 1 1 1 1 1 1 1 1 1 1 1 1 1 1 1 1 1
0 0 0 0 0 0 0 0 0 0 0 0 0 0 1 1 1 1 1 1 1 1 1 1 1 1 1 1 1 1 1 1 1 1 1 1 1 1 1 1 1 1 1 1 1 1 1 1 1
0 0 0 0 0 0 0 0 0 0 0 0 0 0 0 1 1 1 1 1 1 1 1 1 1 1 1 1 1 1 1 1 1 1 1 1 1 1 1 1 1 1 1 1 1 1 1 1 1
0 0 0 0 0 0 0 0 0 0 0 0 0 0 0 0 0 1 1 1 1 1 1 1 1 1 1 1 1 1 1 1 1 1 1 1 1 1 1 1 1 1 1 1 1 1 1 1 1
0 0 0 0 0 0 0 0 0 0 0 0 0 0 0 0 0 0 1 1 1 1 1 1 1 1 1 1 1 1 1 1 1 1 1 1 1 1 1 1 1 1 1 1 1 1 1 1 1
0 0 0 0 0 0 0 0 0 0 0 0 0 0 0 0 0 0 1 1 1 1 1 1 1 1 1 1 1 1 0 0 0 0 1 1 1 1 1 1 1 1 1 1 1 1 1 1 0
0 0 0 0 0 0 0 0 0 0 0 0 0 0 0 0 0 0 0 0 1 1 1 1 0 0 1 1 1 1 1 0 1 1 1 1 1 1 1 1 1 1 1 1 1 1 1 0 0
0 0 0 0 0 0 0 0 0 0 0 0 0 0 0 0 0 0 0 0 0 0 0 0 0 0 1 1 1 1 1 1 1 1 1 1 1 1 1 1 1 1 0 1 1 1 0 0 0
Wind_Speed
8 11 9 7 7 7 4 2 4 4 5 7 7 6 8 9 7 6 6 9 13 16 16 16 15 14 13 11 11 11 10 10 9 9 9 9 9 8 8 7 7 7 6 6 6 5 5 4 2
9 11 9 7 7 5 1 3 5 7 6 5 5 5 6 7 7 7 8 9 14 16 15 14 15 14 13 11 11 10 10 10 9 9 9 9 9 8 8 7 7 6 6 5 5 4 4 4 2
12 13 7 7 7 4 2 4 5 5 4 4 4 5 5 5 6 6 8 10 13 15 14 15 16 14 13 12 11 10 10 9 9 9 9 9 8 8 7 7 7 6 5 5 5 4 4 4 3
9 8 7 7 7 3 3 4 5 4 3 3 4 5 6 7 6 7 9 10 12 14 15 15 15 14 13 12 11 10 10 9 9 9 9 9 8 8 7 7 7 6 5 5 5 4 4 3 3
9 7 9 7 6 3 3 4 4 4 3 4 6 5 6 8 9 9 8 7 10 12 14 16 15 14 12 11 10 9 9 8 8 8 8 9 8 8 7 7 7 6 5 5 5 4 4 4 4
7 7 8 6 3 2 2 2 3 3 3 4 4 4 4 7 7 7 8 8 9 12 14 15 15 14 13 11 10 9 8 8 8 8 8 9 9 9 9 8 7 6 5 5 5 5 5 4 4
9 9 9 6 3 1 2 3 3 4 5 6 3 4 4 5 5 6 6 7 8 11 13 13 12 12 12 11 10 9 8 7 7 8 8 9 10 10 10 9 7 7 6 6 6 6 6 6 6
8 8 11 7 4 2 3 3 4 5 5 6 5 4 4 4 2 5 5 5 6 10 11 13 12 11 10 10 11 10 9 8 8 8 9 9 10 11 10 9 8 8 7 7 7 7 7 7 7
10 9 8 6 3 3 2 3 4 5 5 5 7 8 6 4 2 5 5 4 5 8 8 10 12 11 10 10 10 11 10 9 8 8 9 8 6 7 7 9 10 9 9 8 8 7 8 8 9
8 8 7 6 6 3 3 3 2 2 4 4 5 8 7 5 4 4 4 4 4 5 5 6 9 8 8 7 8 6 7 7 7 6 7 6 5 4 6 9 11 11 10 9 10 10 9 8 6
9 8 7 6 6 5 3 4 4 3 3 4 3 4 6 5 4 3 3 3 4 3 3 5 6 6 6 4 6 4 3 4 6 5 5 4 3 3 4 4 6 7 8 6 7 7 5 5 4
9 7 6 3 3 4 3 3 4 6 5 4 4 4 4 4 4 3 3 4 3 2 2 3 5 4 3 3 3 3 3 4 4 5 5 4 2 2 2 2 3 4 3 4 3 4 4 4 4
9 7 4 2 2 2 2 3 4 4 4 4 3 3 3 4 4 3 4 4 3 2 1 2 4 4 3 2 1 2 2 3 3 4 4 4 3 2 2 1 1 2 3 3 3 2 2 3 3
8 6 5 5 4 1 1 3 3 2 2 3 4 2 3 4 4 4 4 3 2 2 2 2 3 4 3 2 1 1 1 2 2 2 3 3 2 2 1 2 2 2 1 1 2 2 2 3 2
10 8 8 7 4 1 0 2 2 3 2 3 2 1 3 4 4 5 5 3 3 1 1 2 2 3 3 3 3 2 1 2 2 2 3 3 2 2 2 2 2 2 2 2 2 2 2 3 3
12 10 6 3 2 1 2 2 3 1 1 1 2 2 3 4 4 4 5 4 3 2 2 1 1 3 3 2 2 1 1 1 1 1 2 3 2 2 2 2 1 1 2 2 2 2 2 2 2
9 7 6 2 3 1 2 2 5 3 2 2 3 3 4 4 3 4 5 4 3 3 3 2 1 2 2 2 2 1 1 1 0 1 1 2 3 3 2 1 1 1 2 2 2 1 2 2 2
8 8 8 5 3 4 2 1 3 1 1 2 4 4 3 2 1 3 4 5 4 3 3 2 1 1 1 1 1 1 1 1 1 1 1 1 1 2 2 2 2 2 2 2 1 2 2 2 2
9 7 9 6 3 5 4 3 1 2 1 3 3 2 2 2 3 5 4 3 2 3 3 3 1 1 1 1 1 2 2 2 2 2 2 2 2 1 1 1 2 2 2 2 2 2 3 3 2
9 9 9 6 3 6 4 4 4 2 2 4 4 4 4 4 4 4 4 2 2 3 3 3 1 1 1 0 1 1 1 1 2 1 2 2 2 2 2 2 2 2 2 2 2 2 2 3 2
10 9 10 10 8 8 6 4 1 5 5 5 6 6 5 5 4 3 3 2 1 2 2 1 1 1 1 1 1 1 1 1 1 2 2 3 3 3 2 2 2 2 2 2 2 2 3 3 2
10 10 11 11 9 7 7 4 1 4 5 6 5 5 5 6 5 4 3 2 1 1 1 1 2 2 2 1 1 2 2 1 1 1 2 2 3 3 3 2 2 2 2 1 2 2 3 3 2
11 12 13 13 11 9 6 3 2 4 5 4 5 6 6 6 6 5 4 3 2 2 1 1 2 2 2 1 1 1 2 1 1 1 2 2 3 3 3 3 3 3 2 2 3 2 2 2 2
11 12 12 11 8 6 5 3 5 6 6 6 6 6 5 6 6 5 5 4 4 3 1 1 2 2 2 1 1 1 2 2 1 1 2 2 2 2 3 3 3 3 2 2 2 2 3 2 3
10 11 6 4 4 3 3 3 6 6 7 8 8 7 7 7 6 6 6 4 4 2 1 2 2 2 1 1 1 1 2 2 2 2 2 2 2 2 3 2 2 2 2 3 2 3 3 3 3
9 9 7 7 7 7 5 3 5 7 7 8 8 8 7 7 6 6 6 5 4 3 2 2 2 2 1 1 1 0 1 1 1 1 2 2 2 1 2 2 2 2 2 3 2 3 3 3 3
8 8 9 8 9 7 2 4 6 7 8 8 8 8 7 7 7 6 6 5 5 5 3 2 2 2 1 1 1 1 0 1 1 1 1 1 1 1 1 2 2 2 2 2 2 3 3 3 3
6 8 6 6 6 6 3 3 5 8 9 8 8 8 7 6 6 5 5 5 5 4 3 3 2 1 1 0 0 0 0 0 0 0 1 0 1 1 2 2 2 2 2 2 2 2 3 3 3
6 6 6 5 5 6 6 3 4 6 8 8 7 6 7 8 7 5 5 5 5 4 3 3 2 1 1 0 0 1 1 1 0 0 0 1 2 2 3 2 2 3 2 2 2 3 3 3 3
4 6 6 5 5 5 5 2 4 5 6 6 7 7 6 6 6 6 6 6 6 5 4 3 3 2 1 1 1 1 1 1 1 1 1 2 2 3 3 2 2 2 2 2 2 3 3 3 3
Wind_Direction
251 246 240 251 244 243 268 354 60 47 37 47 35 36 46 30 32 80 113 104 113 119 128 133 131 132 132 133 134 136 137 138 140 141 141 139 137 136 135 136 138 137 137 136 134 135 137 132 123
265 255 242 244 255 261 330 17 41 53 42 40 48 49 59 52 54 93 106 109 113 121 133 135 135 134 134 135 136 139 144 147 148 149 149 147 146 145 144 145 147 148 148 146 147 148 147 145 152
259 257 256 250 256 287 358 31 43 53 51 37 54 44 45 51 60 84 106 115 114 122 129 132 138 137 136 137 140 145 148 150 152 153 155 155 154 154 153 153 154 156 155 156 163 168 159 160 176
254 237 234 251 267 282 360 24 29 23 57 44 48 60 67 56 71 96 109 116 120 125 129 134 140 139 140 142 145 147 149 152 155 157 159 160 160 159 160 165 163 164 166 172 178 179 177 181 190
243 253 242 255 268 319 14 16 4 349 29 45 61 64 65 76 88 102 113 122 128 128 130 136 141 141 142 143 146 148 151 155 158 160 163 164 164 164 168 172 171 176 179 184 191 186 182 195 208
250 256 261 261 273 311 44 29 4 17 34 50 72 101 78 89 102 122 132 138 136 130 130 137 144 145 146 147 149 149 150 154 160 166 169 171 171 171 176 176 175 182 192 195 198 198 197 207 216
260 279 282 287 294 328 29 21 7 22 19 13 39 84 93 85 105 122 126 129 132 132 131 137 145 149 150 150 152 154 155 160 165 170 173 178 179 180 182 180 180 184 194 203 208 212 214 216 223
266 286 290 289 291 29 31 19 20 29 25 15 10 65 84 63 103 118 111 119 121 124 132 142 148 151 157 159 163 163 165 168 171 177 180 185 189 188 186 184 186 188 196 210 215 220 226 230 233
258 267 278 296 346 12 360 22 31 36 44 31 31 58 98 124 123 100 108 104 110 119 137 150 152 157 164 166 165 170 175 177 181 188 193 193 197 194 192 193 185 193 201 213 222 227 232 237 238
243 267 290 336 345 352 5 10 359 71 36 11 34 65 98 111 109 113 118 124 121 127 138 148 148 152 164 165 155 172 178 177 190 189 190 198 206 200 193 180 186 195 204 214 225 232 236 237 236
257 273 303 323 344 341 359 8 10 27 27 4 40 86 103 110 109 117 114 106 106 115 133 134 135 147 156 148 152 167 176 169 191 184 191 195 199 193 192 174 183 199 204 213 219 225 229 230 231
258 264 270 313 330 322 338 17 34 29 24 48 61 62 102 125 114 103 104 87 78 109 100 116 124 134 132 132 152 170 174 175 186 171 186 186 185 203 199 178 171 191 196 203 216 217 220 239 244
270 276 299 308 279 290 341 39 48 35 26 34 80 106 130 133 114 114 108 115 119 107 147 184 128 117 125 129 161 170 185 178 175 162 173 186 184 195 201 186 199 208 199 193 213 230 231 245 247
281 291 288 270 266 249 85 43 38 12 32 52 41 41 105 120 116 113 112 116 118 127 158 140 124 129 135 148 197 204 184 166 173 162 161 183 183 175 192 211 217 231 224 203 215 231 238 237 244
282 271 259 251 236 202 79 49 19 19 23 61 64 9 95 107 112 116 122 124 125 142 110 103 133 134 150 173 208 204 206 178 176 159 163 176 186 185 195 219 206 212 225 226 227 254 258 250 244
268 262 261 258 246 167 303 326 111 173 200 129 115 94 72 79 94 104 109 113 132 149 142 109 154 152 172 188 206 206 224 188 178 164 163 172 188 189 211 216 191 206 232 217 218 228 261 262 260
264 276 284 289 267 261 266 288 146 174 162 105 100 88 78 55 49 80 97 98 112 133 129 126 128 143 179 200 195 199 206 207 202 162 158 177 188 194 205 212 187 213 234 233 240 196 247 263 266
306 306 305 295 281 293 281 279 155 161 97 76 76 69 74 86 60 78 85 92 94 111 117 121 107 110 187 187 187 206 200 196 190 193 189 162 190 205 204 212 198 212 223 230 243 248 242 247 254
298 302 295 295 306 295 299 299 249 156 144 80 66 57 65 56 63 75 72 68 96 118 120 126 136 159 202 182 194 200 203 213 207 199 178 171 179 195 197 232 222 218 213 216 229 240 256 249 241
294 292 291 300 315 291 279 272 269 103 70 72 57 42 25 33 51 69 97 114 130 135 137 144 139 169 188 158 221 207 218 227 208 208 169 172 180 179 207 213 231 235 219 208 231 237 250 265 247
304 306 313 309 298 282 272 278 181 117 87 62 53 39 30 22 27 41 72 90 100 118 135 140 135 135 137 176 219 229 204 232 215 196 184 193 189 190 203 213 231 259 241 216 225 231 242 250 258
304 311 305 291 283 277 270 279 107 113 91 57 44 27 20 22 25 34 34 36 57 79 110 124 124 142 160 166 224 238 231 227 230 213 191 197 191 194 206 211 222 243 251 246 252 242 260 251 260
308 310 295 283 275 278 277 280 80 69 55 46 36 30 16 20 21 16 28 22 39 31 81 136 144 155 156 168 214 249 249 246 233 207 197 208 194 193 204 208 222 227 227 238 255 255 260 260 259
310 302 283 270 270 278 312 300 71 43 22 31 30 34 19 19 18 21 30 35 40 37 78 137 148 155 151 161 212 255 264 244 238 228 218 223 208 198 202 216 221 219 216 232 248 260 255 253 266
319 319 307 297 285 306 336 20 69 58 32 29 21 21 22 23 18 14 19 27 33 33 52 107 132 146 151 161 183 264 270 252 229 224 214 222 227 207 197 214 222 223 227 234 234 243 248 250 259
319 324 323 317 316 317 326 59 78 56 45 39 31 25 29 22 16 10 15 18 18 21 43 61 112 122 139 158 151 190 295 280 262 251 238 237 241 229 191 201 218 229 238 244 244 248 244 242 253
321 325 321 302 288 291 1 82 87 40 25 25 25 24 21 18 13 13 12 19 17 27 36 50 75 94 94 74 88 134 280 297 291 286 273 252 248 230 208 207 224 237 243 249 253 247 246 245 244
329 331 336 325 327 320 333 43 22 10 4 13 15 15 13 14 11 12 25 26 22 25 52 70 78 90 89 69 250 82 138 309 8 274 295 294 245 245 230 220 225 234 241 243 246 257 243 245 249
339 345 344 331 330 317 321 21 25 18 8 1 10 11 12 12 1 7 29 27 22 20 32 43 40 49 61 52 89 37 39 347 313 257 298 276 257 244 240 233 232 237 238 244 244 250 252 250 251
344 344 340 325 323 318 313 12 27 10 5 359 9 12 11 11 0 16 27 23 20 19 22 26 18 5 9 80 89 57 21 348 340 328 290 279 261 243 240 237 235 243 243 247 256 259 257 260 261